Terminal Aerodrome Forecast
Issued by NWS

Home | Current Version | Previous Version | Text Only | Print | Product List | Glossary On
Versions: 1 2 3 4 5 6 7 8 9 10 11 12 13 14 15
000
FTUS44 KLZK 300500
TAFHOT
TAF
KHOT 300534Z 3006/0106 11003KT P6SM SKC
     FM301500 15006KT P6SM SCT250
     FM301700 17008KT P6SM SCT050 SCT250
     FM010000 14003KT P6SM SCT250=

USA.gov is the U.S. government's official web portal to all federal, state and local government web resources and services.